Location: ??
(34.9170°N, 135.5016°E)
Time: 17:49:44
(UTC+00:00)

COSMO-SKYMED 1 - Pass Details

Date: 29 October 2020
Orbit: 621 x 623 km, 97.9° (Epoch: 30 November)

Event Time Altitude Azimuth Distance (km) Brightness Sun altitude
Rises 19:49:22 0° 151° (SSE) 2,890 6.5 -18.5°
Reaches altitude 10° 19:51:37 10° 145° (SE) 1,987 5.7 -18.0°
Maximum altitude 19:55:43 43° 74° (ENE) 877 3.8 -17.2°
Drops below altitude 10° 19:59:50 10° 3° (N) 1,999 5.1 -16.3°
Sets 20:02:06 0° 356° (N) 2,910 5.9 -15.9°
